Regional Weather Roundup
Issued by NWS Mt. Holly, NJ

Home | Current Version | Previous Version | Text Only | Print | Product List | Glossary On
Versions: 1 2 3 4 5 6 7 8 9 10 11 12 13 14 15 16 17 18 19 20 21 22 23 24 25 26 27 28 29 30 31 32 33 34 35 36 37 38 39 40 41 42 43 44 45 46 47 48 49 50
000
ASUS41 KPHI 221610
RWRPHI

REGIONAL WEATHER ROUNDUP
NATIONAL WEATHER SERVICE MOUNT HOLLY NJ
1100 AM EST SAT NOV 22 2014

NOTE:  "FAIR" INDICATES FEW OR NO CLOUDS BELOW 12,000 FEET WITH NO
SIGNIFICANT WEATHER AND/OR OBSTRUCTIONS TO VISIBILITY.

 * = STATION DOES NOT REPORT PRECIPITATION (E.G. RAIN, SNOW, ETC.)
        OR FOG.

NJZ015>026-221700-
SOUTHERN NEW JERSEY

CITY           SKY/WX    TMP DP  RH WIND       PRES   REMARKS
POMONA         SUNNY     39  15  37 W10       30.48F WCI  32
RIO GRANDE*    SUNNY     41  19  42 SW13      30.48F
MILLVILLE      SUNNY     40  17  39 SW10G18   30.49F WCI  33
WRIGHTSTOWN    SUNNY     38  12  33 SW16      30.44F WCI  29
MOUNT HOLLY    SUNNY     37  13  37 SW10      30.47F WCI  30
TRENTON        SUNNY     37  13  37 SW12G21   30.45F WCI  29

$$
NJZ001>014-221700-
NORTHERN NEW JERSEY

CITY           SKY/WX    TMP DP  RH WIND       PRES   REMARKS
SUSSEX         SUNNY     33  13  43 SW14G21   30.37F WCI  23
ANDOVER*         N/A     33  11  39 SW14G22   30.38F WCI  23
MORRISTOWN     MOSUNNY   34  12  40 SW16      30.44F WCI  23
NEWARK         MOSUNNY   37  12  35 SW18      30.44F WCI  27
TETERBORO      SUNNY     36  10  34 SW17G24   30.42F WCI  26
CALDWELL       SUNNY     35  10  35 W8        30.42F WCI  29
SOMERVILLE     SUNNY     37  12  35 SW8       30.42F WCI  31
ALLAIRE*       SUNNY     37  10  32 SW12      30.45F WCI  30
TOMS RIVER*    SUNNY     37  10  32 W9G17     30.47F WCI  31

$$
PAZ043-044-047-054-055-060>062-066>071-221700-
EASTERN PENNSYLVANIA

CITY           SKY/WX    TMP DP  RH WIND       PRES   REMARKS
PHILADELPHIA   SUNNY     38  17  42 SW18      30.49F WCI  28
NORTH PHILA    SUNNY     39  13  34 SW14G28   30.48F WCI  31
BLUE BELL      SUNNY     37  18  44 SW12G18   30.44F WCI  30
DOYLESTOWN     SUNNY     35  12  38 SW13G21   30.43F WCI  26
QUAKERTOWN*    SUNNY     36  12  38 SW10      30.43F WCI  28
POTTSTOWN      SUNNY     36  12  37 S9        30.46F WCI  29
LANCASTER      SUNNY     36  12  37 SW8G20    30.42F WCI  30
COATESVILLE    SUNNY     36  14  41 SW8       30.43F WCI  29
READING        SUNNY     37  12  35 SW9       30.42F WCI  30
ALLENTOWN      SUNNY     36  12  37 SW12      30.42F WCI  28
MOUNT POCONO   SUNNY     31   7  36 W15       30.29F WCI  20
HAZLETON       SUNNY     32   9  37 S8        30.35F WCI  25
WILKES BARRE   SUNNY     34  11  38 SW10      30.33F WCI  26

$$
DEZALL-MDZ008-012-015-019-020-221700-
DELAWARE AND EASTERN MARYLAND

CITY           SKY/WX    TMP DP  RH WIND       PRES   REMARKS
WILMINGTON     SUNNY     40  17  39 SW15      30.49F WCI  32
DOVER          SUNNY     41  19  41 S15       30.47F
GEORGETOWN     SUNNY     42  19  39 SW15      30.52F
PATUXENT       MOSUNNY   42  15  33 S10       30.51F
OCEAN CITY     SUNNY     41  16  36 SW14G22   30.53F
WALLOPS ISLAND SUNNY     44  15  31 W10       30.54F
CAMBRIDGE      SUNNY     43  19  39 SW10G17   30.51S
SALISBURY      SUNNY     45  19  35 S13       30.52F

$$
PAZ001-021-NYZ056-072-MDZ011-DCZ001-221700-
OTHER NEARBY LOCATIONS

CITY           SKY/WX    TMP DP  RH WIND       PRES   REMARKS
HARRISBURG     MOSUNNY   34  15  46 E3        30.42F
STATE COLLEGE  PTSUNNY   32  10  40 SW8       30.32F WCI  25
WILLIAMSPORT   MOSUNNY   30  14  51 VRB3      30.37F
BINGHAMTON     PTSUNNY   31   9  39 SW14G21   30.21F WCI  21
NEW YORK CITY  SUNNY     35  10  35 SW5       30.44F WCI  31
BALTIMORE      MOSUNNY   39  14  36 SW9G16    30.46F WCI  33
WASHINGTON DC  MOSUNNY   42  17  36 S10       30.49F

$$


USA.gov is the U.S. government's official web portal to all federal, state and local government web resources and services.